User: anonymous   Login
Location: Vancouver
(49.2500°N, 123.1330°W)
Time: 05:55:03
(UTC-07:00)
Language:

Cosmos 676 Rocket - Orbit

View from above orbital plane
View from above orbital plane
View from above satellite
View from above satellite

Ground track
Ground track

The orbit data is extracted from the following two-line orbital elements,

1 07434U 74071B   14304.11419032  .00000289  00000-0  10741-3 0  3517
2 07434 074.0472 176.8296 0021538 322.4582 147.9440 14.36312419 98851
Epoch (UTC): 31 October 2014 02:44:26
Eccentricity: 0.0021538
inclination: 74.0472°
perigee height: 755 km
apogee height: 786 km
right ascension of ascending node: 176.8296°
argument of perigee: 322.4582°
revolutions per day: 14.36312419
mean anomaly at epoch: 147.9440°
orbit number at epoch: 9885

The dashed part of the orbit path shows where the satellite is in the earth's shadow,  

DLR